This is the latest recevied weather packets stored in our database for station/object WA4OPQ-3. If no packets are shown the sender has not sent any weather packets the latest 10 day(s).
| Time | Temp. | Humidity | Pressure | Rain* | Wind** | Luminosity | Snow |
|---|---|---|---|---|---|---|---|
| 1777895499 | 10° C | 94% | 1013.6 hPa | 0 mm | - | 44 W/m² | - |
| 1777894892 | 9.44° C | 95% | 1013.6 hPa | 0 mm | - | 37 W/m² | - |
| 1777894287 | 9.44° C | 95% | 1013.3 hPa | 0 mm | - | 27 W/m² | - |
| 1777893683 | 8.89° C | 95% | 1013.3 hPa | 0 mm | - | 15 W/m² | - |
| 1777893078 | 8.89° C | 95% | 1013.1 hPa | 0 mm | - | 7 W/m² | - |
| 1777892474 | 8.89° C | 95% | 1013 hPa | 0 mm | - | 3 W/m² | - |
| 1777891869 | 8.89° C | 95% | 1013.1 hPa | 0 mm | - | 0 W/m² | - |
| 1777891264 | 8.89° C | 95% | 1013.1 hPa | 0 mm | - | 0 W/m² | - |
| 1777890658 | 8.89° C | 94% | 1012.9 hPa | 0 mm | - | 0 W/m² | - |
| 1777890052 | 8.89° C | 94% | 1013 hPa | 0 mm | - | 0 W/m² | - |
| 1777889449 | 8.89° C | 93% | 1013 hPa | 0 mm | - | 0 W/m² | - |
| 1777888843 | 8.89° C | 92% | 1013.1 hPa | 0 mm | - | 0 W/m² | - |
| 1777888238 | 8.89° C | 92% | 1013.1 hPa | 0 mm | - | 0 W/m² | - |
| 1777887632 | 9.44° C | 92% | 1013.2 hPa | 0 mm | - | 0 W/m² | - |
| 1777887028 | 9.44° C | 92% | 1013.3 hPa | 0 mm | - | 0 W/m² | - |
| 1777886423 | 9.44° C | 91% | 1013.4 hPa | 0 mm | - | 0 W/m² | - |
| 1777885819 | 9.44° C | 91% | 1013.4 hPa | 0 mm | - | 0 W/m² | - |
| 1777885213 | 9.44° C | 91% | 1013 hPa | 0 mm | - | 0 W/m² | - |
| 1777884607 | 9.44° C | 90% | 1013.2 hPa | 0 mm | - | 0 W/m² | - |
| 1777884003 | 9.44° C | 90% | 1013.2 hPa | 0 mm | - | 0 W/m² | - |
| 1777883398 | 9.44° C | 90% | 1013.3 hPa | 0 mm | - | 0 W/m² | - |
| 1777882792 | 9.44° C | 89% | 1013.2 hPa | 0 mm | - | 0 W/m² | - |
| 1777882187 | 9.44° C | 89% | 1013.2 hPa | 0 mm | - | 0 W/m² | - |
| 1777881582 | 9.44° C | 89% | 1013.1 hPa | 0 mm | - | 0 W/m² | - |
| 1777880978 | 10° C | 89% | 1013.4 hPa | 0 mm | - | 0 W/m² | - |
* Rain latest hour (hover to see other rain measurements)
** Current wind speed in m/s (hover to see current wind gust speed)